This demonstration page uses our WeatherBlox Daily Observations layout. Learn more.

Left ArrowRight Arrow

39.29038, -76.61219

Hourly Observations for October 29, 2021

Temp ( °F °C ) Dew Point ( °F °C ) Humidity (%) Winds ( mph kmh ) Pressure ( in mb ) Visibility ( mi km ) Precip ( " mm )
12:54 am 00:54 Cloudy 58 14.4 53 11.7 84 84 E 9 15 29.85 1011 9 14 0.00 0.00
1:54 am 01:54 Cloudy with Light Rain 58 14.4 53 11.7 84 84 E 14 22 29.82 1010 10 16 0.00 0.00
2:19 am 02:19 Cloudy with Light Rain 57 13.9 54 12.2 90 90 E 14 22 29.82 1010 10 16 0.00 0.00
2:54 am 02:54 Cloudy 57 13.9 54 12.2 90 90 E 13 20 29.82 1010 10 16 0.01 0.25
3:32 am 03:32 Cloudy with Light Rain 57 13.9 54 12.2 90 90 E 14 22 29.82 1010 5 8 0.00 0.00
3:44 am 03:44 Cloudy with Mist and Fog 57 13.9 54 12.2 90 90 E 15 24 29.81 1009 6 10 0.00 0.00
3:54 am 03:54 Cloudy with Drizzle 57 13.9 54 12.2 90 90 E 15 24 29.80 1009 4 6 0.00 0.00
4:21 am 04:21 Cloudy with Light Rain 57 13.9 54 12.2 90 90 E 16 26 29.79 1009 4 6 0.01 0.25
4:54 am 04:54 Cloudy with Light Rain 57 13.9 54 12.2 90 90 E 17 28 29.77 1008 5 8 0.07 1.78
5:14 am 05:14 Cloudy with Light Rain 57 13.9 54 12.2 90 90 ENE 18 30 29.76 1008 7 11 0.02 0.51
5:31 am 05:31 Cloudy with Light Rain 57 13.9 54 12.2 90 90 E 18 30 29.75 1007 7 11 0.03 0.76
5:54 am 05:54 Cloudy with Light Rain 56 13.3 54 12.2 93 93 ENE 16 26 29.75 1007 8 13 0.05 1.27
6:54 am 06:54 Cloudy with Light Rain 57 13.9 54 12.2 90 90 E 22 35 29.72 1007 7 11 0.00 0.00
7:54 am 07:54 Cloudy with Light Rain 57 13.9 54 12.2 90 90 E 23 37 29.70 1006 3 5 0.01 0.25
8:54 am 08:54 Cloudy with Light Rain 57 13.9 54 12.2 90 90 ENE 20 31 29.68 1005 2 3 0.02 0.51
9:54 am 09:54 Cloudy with Rain 57 13.9 54 12.2 90 90 ENE 18 30 29.65 1004 1 2 0.08 2.03
10:08 am 10:08 Cloudy with Rain 57 13.9 54 12.2 90 90 ENE 22 35 29.65 1004 2 3 0.04 1.02
10:46 am 10:46 Cloudy with Light Rain 58 14.4 54 12.2 87 87 E 30 48 29.61 1003 3 5 0.09 2.29
10:54 am 10:54 Cloudy with Light Rain 58 14.4 55 12.8 90 90 E 26 43 29.61 1003 3 5 0.11 2.79
11:10 am 11:10 Cloudy with Rain 58 14.4 55 12.8 90 90 E 22 35 29.61 1003 2 3 0.04 1.02
11:54 am 11:54 Cloudy with Light Rain 59 15 56 13.3 90 90 E 22 35 29.59 1002 3 4 0.14 3.56
12:01 pm 12:01 Cloudy with Light Rain 59 15 55 12.8 87 87 E 22 35 29.59 1002 3 5 0.01 0.25
12:54 pm 12:54 Cloudy with Rain 59 15 56 13.3 90 90 E 26 43 29.54 1000 2 3 0.06 1.52
12:56 pm 12:56 Cloudy with Rain 59 15 56 13.3 90 90 E 24 39 29.54 1000 2 2 0.00 0.00
1:27 pm 13:27 Cloudy with Light Rain 59 15 56 13.3 90 90 E 21 33 29.52 1000 3 4 0.16 4.06
1:31 pm 13:31 Cloudy with Rain 59 15 56 13.3 90 90 E 25 41 29.52 1000 2 2 0.17 4.32
1:54 pm 13:54 Cloudy with Rain 59 15 56 13.3 90 90 E 24 39 29.51 999 1 2 0.26 6.60
2:54 pm 14:54 Cloudy with Heavy Rain 60 15.6 57 13.9 90 90 E 13 20 29.53 1000 1 2 0.55 13.97
3:54 pm 15:54 Cloudy with Rain 60 15.6 57 13.9 90 90 ENE 14 22 29.47 998 2 2 0.38 9.65
4:06 pm 16:06 Cloudy with Light Rain 60 15.6 57 13.9 90 90 VRB 3 6 29.47 998 3 4 0.07 1.78
4:20 pm 16:20 Cloudy with Heavy Rain 59 15 57 13.9 93 93 W 13 20 29.48 998 1 2 0.18 4.57
4:54 pm 16:54 Cloudy with Heavy Rain 59 15 57 13.9 93 93 N 10 17 29.48 998 2 2 0.68 17.27
5:12 pm 17:12 Cloudy with Heavy Rain 59 15 57 13.9 93 93 N 12 19 29.48 998 2 3 0.16 4.06
5:23 pm 17:23 Cloudy with Light Rain 59 15 57 13.9 93 93 N 7 11 29.46 998 3 4 0.21 5.33
5:40 pm 17:40 Cloudy with Light Rain 59 15 57 13.9 93 93 NE 5 7 29.47 998 3 5 0.25 6.35
5:54 pm 17:54 Cloudy with Light Rain 59 15 57 13.9 93 93 N 7 11 29.46 998 3 5 0.31 7.87
6:54 pm 18:54 Mostly Cloudy with Light Rain 58 14.4 56 13.3 93 93 N 9 15 29.45 997 5 8 0.15 3.81
7:33 pm 19:33 Cloudy with Light Rain 58 14.4 56 13.3 93 93 NE 7 11 29.46 998 6 10 0.05 1.27
7:38 pm 19:38 Cloudy with Light Rain 59 15 57 13.9 93 93 NE 7 11 29.46 998 5 8 0.06 1.52
7:54 pm 19:54 Cloudy with Light Rain 59 15 57 13.9 93 93 NE 7 11 29.44 997 5 8 0.10 2.54
8:54 pm 20:54 Cloudy with Mist and Fog 59 15 56 13.3 90 90 NE 10 17 29.44 997 6 10 0.02 0.51
9:35 pm 21:35 Cloudy with Light Rain 58 14.4 55 12.8 90 90 N N/A 29.46 998 6 10 0.01 0.25
9:54 pm 21:54 Cloudy with Mist and Fog 58 14.4 55 12.8 90 90 N N/A 29.47 998 6 10 0.01 0.25
10:21 pm 22:21 Cloudy with Mist and Fog 58 14.4 55 12.8 90 90 WNW 7 11 29.48 998 6 10 N/A
10:54 pm 22:54 Cloudy with Drizzle 58 14.4 55 12.8 90 90 WNW 7 11 29.49 999 5 8 0.00 0.00
11:54 pm 23:54 Cloudy 57 13.9 54 12.2 90 90 NNW 5 7 29.49 999 7 11 0.00 0.00

Powered by AerisWeather